Weather in Sosnovy

Russia / Krasnodar Krai     44°10′36″N   38°56′44″E
temp.,
°C
wind,
m/s
gust,
m/s
humid.,
%
clouds,
%
prec.,
mm/h
press.,
hPa
HPBL,
m
24 may, tue
tue2400:00+9se1195100 0.1 100935
03:00+10sse2294100 0.6 100984
06:00+10sse239493 0.2 1010122
09:00+13s4672100 0.3 1011901
12:00+15s466463 0.3 10111128
15:00+16s56595 0.4 10121272
18:00+14sse577033 0.0 1014853
21:00+9se229486 0.3 101664
25 may, wed
wed2500:00+10e119176 0.8 101644
03:00+9ene119451 1.4 101829
06:00+9ene11945 0.3 101930
09:00+14sw118058 1.1 1019384
12:00+17ssw325211 0.4 10201422
15:00+16sw335861 0.7 10211086
18:00+15wsw22612 0.1 1021554
21:00+9ene11872 0.1 102214
26 may, thu
thu2600:00+9e11895 0.0 102318
03:00+8e1191100 0.0 102320
06:00+10ene118493 0.0 102335
09:00+16ssw21570 0.0 1022900
12:00+18sw325324 0.0 10221431
15:00+18sw32535 0.0 1021829
18:00+16wsw11626 0.0 1021477
21:00+11ne1180100 0.0 102116
27 may, fri
fri2700:00+10ne11728 0.0 102116
03:00+10e117342 0.0 102116
06:00+11e117361 0.0 102124
09:00+17ssw225011 0.0 1021550
12:00+19sw33390 0.0 1021891
15:00+20sw22360 0.0 1020773
18:00+18wsw11520 0.0 1019190
21:00+12ne22600 0.0 101923
28 may, sat
sat2800:00+12ene22680 0.0 101822
03:00+11ene22840 0.0 101720
06:00+12ene22730 0.0 101625
09:00+21s12390 0.0 1015563
12:00+23ssw35325 0.0 1014865
15:00+23sw24341 0.0 1013707
18:00+22w01590 0.0 101335
21:00+16ne22620 0.0 101326